TimeEDT,TemperatureF,Dew PointF,Humidity,Sea Level PressureIn,VisibilityMPH,Wind Direction,Wind SpeedMPH,Gust SpeedMPH,PrecipitationIn,Events,Conditions,WindDirDegrees,DateUTC
12:51 AM,53.1,48.0,83,30.16,10.0,SE,10.4,-,N/A,,Clear,130,2013-09-29 04:51:00
1:51 AM,52.0,48.0,86,30.16,10.0,ESE,5.8,-,N/A,,Clear,120,2013-09-29 05:51:00
2:51 AM,52.0,46.9,83,30.15,10.0,SE,5.8,-,N/A,,Clear,140,2013-09-29 06:51:00
3:51 AM,51.1,46.0,83,30.14,10.0,ESE,4.6,-,N/A,,Clear,120,2013-09-29 07:51:00
4:51 AM,50.0,46.0,86,30.15,10.0,SE,4.6,-,N/A,,Clear,130,2013-09-29 08:51:00
5:51 AM,51.1,46.0,83,30.14,10.0,ESE,6.9,-,N/A,,Scattered Clouds,120,2013-09-29 09:51:00
6:51 AM,51.1,46.0,83,30.16,10.0,Variable,3.5,-,N/A,,Partly Cloudy,0,2013-09-29 10:51:00
7:51 AM,51.1,46.0,83,30.17,10.0,Variable,3.5,-,N/A,,Scattered Clouds,0,2013-09-29 11:51:00
8:51 AM,53.1,46.9,80,30.17,10.0,SE,4.6,-,N/A,,Scattered Clouds,130,2013-09-29 12:51:00
9:51 AM,57.9,48.9,72,30.16,10.0,Calm,Calm,-,N/A,,Partly Cloudy,0,2013-09-29 13:51:00
10:51 AM,61.0,48.9,64,30.15,10.0,SSE,5.8,-,N/A,,Partly Cloudy,160,2013-09-29 14:51:00
11:51 AM,64.0,51.1,63,30.14,10.0,West,3.5,-,N/A,,Partly Cloudy,280,2013-09-29 15:51:00
12:03 PM,64.4,50.0,59,30.17,10.0,Calm,Calm,-,N/A,,Mostly Cloudy,0,2013-09-29 16:03:00
12:21 PM,66.2,51.8,60,30.17,10.0,Variable,3.5,-,N/A,,Mostly Cloudy,0,2013-09-29 16:21:00
12:47 PM,66.2,51.8,60,30.16,10.0,West,4.6,-,N/A,,Mostly Cloudy,280,2013-09-29 16:47:00
12:51 PM,68.0,52.0,56,30.11,10.0,Calm,Calm,-,N/A,,Mostly Cloudy,0,2013-09-29 16:51:00
1:05 PM,66.2,53.6,64,30.15,10.0,West,5.8,-,N/A,,Mostly Cloudy,280,2013-09-29 17:05:00
1:51 PM,70.0,52.0,53,30.08,10.0,NNW,5.8,-,N/A,,Mostly Cloudy,340,2013-09-29 17:51:00
2:51 PM,68.0,48.9,50,30.06,10.0,NNE,3.5,-,N/A,,Mostly Cloudy,30,2013-09-29 18:51:00
3:51 PM,68.0,50.0,52,30.06,10.0,West,4.6,-,N/A,,Scattered Clouds,280,2013-09-29 19:51:00
4:51 PM,66.9,52.0,59,30.06,-9999.0,NNW,3.5,-,N/A,,Unknown,330,2013-09-29 20:51:00
5:51 PM,64.9,55.0,70,30.06,10.0,WNW,3.5,-,N/A,,Overcast,290,2013-09-29 21:51:00
6:51 PM,62.1,55.0,78,30.06,10.0,SSW,3.5,-,N/A,,Mostly Cloudy,210,2013-09-29 22:51:00
7:51 PM,62.1,55.0,78,30.06,10.0,Calm,Calm,-,N/A,,Mostly Cloudy,0,2013-09-29 23:51:00
8:51 PM,61.0,55.0,81,30.06,10.0,Calm,Calm,-,N/A,,Partly Cloudy,0,2013-09-30 00:51:00
9:51 PM,57.9,54.0,87,30.06,10.0,Calm,Calm,-,N/A,,Clear,0,2013-09-30 01:51:00
10:51 PM,57.9,53.1,84,30.06,10.0,Calm,Calm,-,N/A,,Clear,0,2013-09-30 02:51:00
11:51 PM,57.9,52.0,81,30.06,10.0,SSE,3.5,-,N/A,,Overcast,150,2013-09-30 03:51:00